Location: Brotuna
(46.2000°N, 22.6000°E)
Time: 16:43:32
(UTC+00:00)

Nadezhda 3 Rocket - Pass Details

Date: 09 April 2020
Orbit: 956 x 1000 km, 82.9° (Epoch: 25 May)

Event Time Altitude Azimuth Distance (km) Brightness Sun altitude
Exits shadow 19:56:44 62° 127° (SE) 1,108 3.9 -25.8°
Maximum altitude 19:57:23 66° 94° (E) 1,075 3.9 -25.9°
Drops below altitude 10° 20:03:36 10° 14° (NNE) 2,742 6.7 -26.6°
Sets 20:06:08 0° 12° (NNE) 3,688 7.5 -26.9°
